EN

Hourly Weather Dzierzki

Today, 22 October, Thursday

Time Temperature Precipitation Wind Pressure Humidity
00:00 +10°C° 0 mm 4 mps 748 mmHg 77%
01:00 +10°C° 0 mm 4 mps 748 mmHg 78%
02:00 +10°C° 0 mm 4 mps 748 mmHg 79%
03:00 +8°C° 0 mm 4 mps 747 mmHg 82%
04:00 +8°C° 0 mm 4 mps 747 mmHg 85%
05:00 +7°C° 0 mm 4 mps 747 mmHg 88%
06:00 +8°C° 0 mm 5 mps 747 mmHg 86%
07:00 +8°C° 0 mm 5 mps 747 mmHg 83%
08:00 +9°C° 0 mm 5 mps 747 mmHg 81%
09:00 +11°C° 0 mm 6 mps 747 mmHg 76%
10:00 +12°C° 0 mm 7 mps 747 mmHg 70%
11:00 +15°C° 0 mm 7 mps 748 mmHg 64%
12:00 +16°C° 0 mm 7 mps 748 mmHg 63%
13:00 +17°C° 0 mm 7 mps 748 mmHg 62%
14:00 +18°C° 0 mm 7 mps 748 mmHg 60%
15:00 +17°C° 0 mm 6 mps 748 mmHg 66%
16:00 +16°C° 0 mm 5 mps 748 mmHg 71%
17:00 +16°C° 0 mm 3 mps 748 mmHg 76%
18:00 +14°C° 0 mm 3 mps 748 mmHg 80%
19:00 +13°C° 0 mm 3 mps 748 mmHg 84%
20:00 +12°C° 0 mm 3 mps 748 mmHg 88%
21:00 +12°C° 0 mm 3 mps 748 mmHg 89%
22:00 +12°C° 0 mm 3 mps 748 mmHg 90%
23:00 +12°C° 0 mm 3 mps 748 mmHg 90%

Tomorrow, 23 October, Friday

Time Temperature Precipitation Wind Pressure Humidity
00:00 +11°C° 0 mm 3 mps 748 mmHg 91%
01:00 +11°C° 0 mm 3 mps 748 mmHg 91%
02:00 +11°C° 0 mm 3 mps 748 mmHg 92%
03:00 +11°C° 0 mm 3 mps 748 mmHg 90%
04:00 +12°C° 0 mm 4 mps 748 mmHg 88%
05:00 +12°C° 0 mm 4 mps 747 mmHg 87%
06:00 +12°C° 0 mm 4 mps 747 mmHg 85%
07:00 +12°C° 0 mm 5 mps 747 mmHg 84%
08:00 +12°C° 0 mm 5 mps 746 mmHg 82%
09:00 +13°C° 0 mm 5 mps 746 mmHg 80%
10:00 +14°C° 0 mm 5 mps 746 mmHg 77%
11:00 +15°C° 0 mm 5 mps 746 mmHg 75%
12:00 +14°C° 0.2 mm 5 mps 746 mmHg 77%
13:00 +14°C° 0.2 mm 4 mps 746 mmHg 80%
14:00 +14°C° 0.2 mm 4 mps 746 mmHg 82%
15:00 +14°C° 0.2 mm 4 mps 746 mmHg 84%
16:00 +13°C° 0.2 mm 3 mps 746 mmHg 86%
17:00 +13°C° 0.2 mm 3 mps 746 mmHg 88%
18:00 +12°C° 0 mm 3 mps 746 mmHg 89%
19:00 +13°C° 0 mm 2 mps 746 mmHg 90%
20:00 +13°C° 0 mm 2 mps 746 mmHg 91%
21:00 +13°C° 0 mm 2 mps 746 mmHg 91%
22:00 +12°C° 0 mm 2 mps 746 mmHg 92%
23:00 +12°C° 0 mm 1 mps 746 mmHg 93%

Day after tomorrow, 24 October, Saturday

Time Temperature Precipitation Wind Pressure Humidity
00:00 +12°C° 0.1 mm 1 mps 746 mmHg 94%
01:00 +12°C° 0.1 mm 1 mps 746 mmHg 95%
02:00 +12°C° 0.1 mm 1 mps 746 mmHg 96%
03:00 +12°C° 0.5 mm 1 mps 745 mmHg 96%
04:00 +11°C° 0.5 mm 0 mps 745 mmHg 97%
05:00 +11°C° 0.5 mm 0 mps 745 mmHg 97%
06:00 +11°C° 0.9 mm 0 mps 745 mmHg 97%
07:00 +12°C° 0.9 mm 1 mps 745 mmHg 97%
08:00 +12°C° 0.9 mm 1 mps 745 mmHg 98%
09:00 +13°C° 0.5 mm 1 mps 745 mmHg 95%
10:00 +13°C° 0.5 mm 1 mps 745 mmHg 92%
11:00 +14°C° 0.5 mm 1 mps 745 mmHg 89%
12:00 +14°C° 0.4 mm 2 mps 745 mmHg 89%
13:00 +13°C° 0.4 mm 3 mps 745 mmHg 89%
14:00 +13°C° 0.4 mm 4 mps 745 mmHg 89%
15:00 +12°C° 1.3 mm 3 mps 745 mmHg 90%
16:00 +12°C° 1.3 mm 3 mps 745 mmHg 92%
17:00 +13°C° 1.3 mm 2 mps 745 mmHg 93%
18:00 +11°C° 0.1 mm 3 mps 746 mmHg 92%
19:00 +11°C° 0.1 mm 4 mps 746 mmHg 91%
20:00 +11°C° 0.1 mm 4 mps 747 mmHg 90%
21:00 +11°C° 0 mm 4 mps 747 mmHg 89%
22:00 +10°C° 0 mm 4 mps 747 mmHg 88%
23:00 +9°C° 0 mm 5 mps 748 mmHg 86%

25 October, Sunday

Time Temperature Precipitation Wind Pressure Humidity
00:00 +8°C° 0 mm 4 mps 748 mmHg 88%
01:00 +7°C° 0 mm 4 mps 748 mmHg 90%
02:00 +7°C° 0 mm 4 mps 749 mmHg 92%
03:00 +6°C° 0 mm 4 mps 749 mmHg 93%
04:00 +7°C° 0 mm 3 mps 749 mmHg 93%
05:00 +5°C° 0 mm 3 mps 750 mmHg 94%
06:00 +5°C° 0 mm 3 mps 750 mmHg 94%
07:00 +5°C° 0 mm 3 mps 750 mmHg 94%
08:00 +5°C° 0 mm 3 mps 750 mmHg 95%
09:00 +7°C° 0 mm 3 mps 751 mmHg 89%
10:00 +9°C° 0 mm 3 mps 751 mmHg 82%
11:00 +10°C° 0 mm 3 mps 751 mmHg 76%
12:00 +12°C° 0 mm 2 mps 751 mmHg 72%
13:00 +12°C° 0 mm 2 mps 751 mmHg 68%
14:00 +13°C° 0 mm 2 mps 751 mmHg 64%
15:00 +12°C° 0 mm 2 mps 751 mmHg 69%
16:00 +11°C° 0 mm 1 mps 751 mmHg 73%
17:00 +10°C° 0 mm 1 mps 751 mmHg 77%
18:00 +10°C° 0 mm 1 mps 751 mmHg 79%
19:00 +8°C° 0 mm 2 mps 751 mmHg 82%
20:00 +8°C° 0 mm 2 mps 751 mmHg 84%
21:00 +7°C° 0 mm 2 mps 752 mmHg 85%
22:00 +7°C° 0 mm 2 mps 752 mmHg 87%
23:00 +7°C° 0 mm 2 mps 752 mmHg 88%

26 October, Monday

Time Temperature Precipitation Wind Pressure Humidity
00:00 +7°C° 0 mm 3 mps 752 mmHg 88%
01:00 +5°C° 0 mm 3 mps 752 mmHg 89%
02:00 +5°C° 0 mm 3 mps 752 mmHg 90%
03:00 +5°C° 0 mm 3 mps 752 mmHg 90%
04:00 +5°C° 0 mm 3 mps 752 mmHg 90%
05:00 +4°C° 0 mm 3 mps 752 mmHg 90%
06:00 +4°C° 0 mm 3 mps 752 mmHg 90%
07:00 +4°C° 0 mm 4 mps 752 mmHg 90%
08:00 +4°C° 0 mm 4 mps 752 mmHg 90%
09:00 +6°C° 0 mm 4 mps 752 mmHg 84%
10:00 +8°C° 0 mm 5 mps 752 mmHg 78%
11:00 +9°C° 0 mm 5 mps 751 mmHg 71%
12:00 +10°C° 0 mm 5 mps 751 mmHg 69%
13:00 +11°C° 0 mm 6 mps 751 mmHg 66%
14:00 +13°C° 0 mm 6 mps 751 mmHg 64%
15:00 +12°C° 0 mm 5 mps 751 mmHg 67%
16:00 +10°C° 0 mm 5 mps 750 mmHg 70%
17:00 +10°C° 0 mm 4 mps 750 mmHg 74%
18:00 +9°C° 0 mm 5 mps 750 mmHg 76%
19:00 +8°C° 0 mm 5 mps 750 mmHg 77%
20:00 +8°C° 0 mm 5 mps 751 mmHg 79%
21:00 +7°C° 0 mm 5 mps 751 mmHg 81%
22:00 +7°C° 0 mm 5 mps 751 mmHg 83%
23:00 +7°C° 0 mm 5 mps 751 mmHg 84%

27 October, Tuesday

Time Temperature Precipitation Wind Pressure Humidity
00:00 +6°C° 0 mm 5 mps 751 mmHg 85%
01:00 +6°C° 0 mm 5 mps 751 mmHg 86%
02:00 +6°C° 0 mm 5 mps 751 mmHg 86%
03:00 +5°C° 0 mm 5 mps 751 mmHg 87%
04:00 +5°C° 0 mm 5 mps 751 mmHg 88%
05:00 +5°C° 0 mm 5 mps 751 mmHg 89%
06:00 +5°C° 0 mm 5 mps 751 mmHg 89%
07:00 +5°C° 0 mm 4 mps 751 mmHg 89%
08:00 +5°C° 0 mm 4 mps 750 mmHg 89%
09:00 +6°C° 0 mm 5 mps 750 mmHg 84%
10:00 +7°C° 0 mm 5 mps 750 mmHg 79%
11:00 +8°C° 0 mm 5 mps 751 mmHg 74%
12:00 +9°C° 0 mm 5 mps 750 mmHg 72%
13:00 +10°C° 0 mm 5 mps 750 mmHg 71%
14:00 +12°C° 0 mm 5 mps 750 mmHg 69%
15:00 +11°C° 0 mm 4 mps 751 mmHg 72%
16:00 +11°C° 0 mm 4 mps 751 mmHg 75%
17:00 +10°C° 0 mm 3 mps 751 mmHg 79%
18:00 +10°C° 0 mm 3 mps 751 mmHg 80%
19:00 +10°C° 0 mm 3 mps 751 mmHg 81%
20:00 +10°C° 0 mm 3 mps 751 mmHg 82%
21:00 +10°C° 0 mm 3 mps 751 mmHg 85%
22:00 +10°C° 0 mm 3 mps 751 mmHg 87%
23:00 +10°C° 0 mm 3 mps 752 mmHg 89%

28 October, Wednesday

Time Temperature Precipitation Wind Pressure Humidity
00:00 +9°C° 0 mm 3 mps 752 mmHg 91%
01:00 +9°C° 0 mm 3 mps 752 mmHg 92%
02:00 +9°C° 0 mm 2 mps 752 mmHg 94%
03:00 +8°C° 0 mm 2 mps 752 mmHg 94%
04:00 +8°C° 0 mm 2 mps 752 mmHg 95%
05:00 +8°C° 0 mm 2 mps 752 mmHg 95%
06:00 +8°C° 0 mm 2 mps 753 mmHg 95%
07:00 +8°C° 0 mm 2 mps 753 mmHg 95%
08:00 +8°C° 0 mm 2 mps 753 mmHg 94%
09:00 +9°C° 0 mm 2 mps 753 mmHg 89%
10:00 +12°C° 0 mm 2 mps 753 mmHg 83%
11:00 +14°C° 0 mm 2 mps 753 mmHg 77%
12:00 +15°C° 0 mm 2 mps 753 mmHg 74%
13:00 +15°C° 0 mm 2 mps 753 mmHg 70%
14:00 +16°C° 0 mm 2 mps 753 mmHg 67%
15:00 +15°C° 0 mm 2 mps 753 mmHg 72%
16:00 +14°C° 0 mm 2 mps 753 mmHg 77%
17:00 +13°C° 0 mm 2 mps 753 mmHg 82%
18:00 +12°C° 0 mm 2 mps 753 mmHg 85%
19:00 +12°C° 0 mm 2 mps 753 mmHg 88%
20:00 +10°C° 0 mm 3 mps 753 mmHg 90%
21:00 +10°C° 0 mm 2 mps 753 mmHg 91%
22:00 +9°C° 0 mm 2 mps 753 mmHg 92%
23:00 +9°C° 0 mm 2 mps 753 mmHg 93%
Show more